Voltar ao catálogo

STARLINK-34187

AtivoComunicaçõesVLEO
NORAD 63956·PAYLOAD·🇺🇸 United States

Lançado May 13, 2025 de Cape Canaveral Space Force Station

Loading…

Próximas Passagens (próximas 24 horas)

TLE

AtualizadoSource: CelesTrak SupGP

Época: Sep 14, 2026, 21:07 UTC

1 63956C 25099E   26257.88034722  .00003340  00000+0  12090-3 0  2571
2 63956  43.0021 188.0336 0001379 260.4612 241.8305 15.27593330    13

Acompanhe STARLINK-34187 em tempo real com AllMySat

Download on the App Store